Find Starlink 3831

NORAD ID: 52332 Int'l Des: 2022-045 Owner: SPXS Country: US Constellation: starlink operational
LEOCIRCULAR

現在のビュー

3D地球を読み込み中...

About Starlink 3831

Starlink 3831 (NORAD 52332) is a starlink constellation satellite (v1.5) launched Apr 29, 2022 by SPXS of US. It operates in LEO, CIRCULAR orbit with a mass of 297.00 kg.

Starlink 3831について

説明を読み込み中...

次回通過

Passes for default location (London). Set your location on the main map for personalized predictions.

高度履歴

Loading altitude history...

軌道要素

1 52332U 22045B 26164.24394916 .00000338 00000-0 39349-4 0 9991
2 52332 53.1594 140.1003 0001319 88.4725 271.6417 15.08832073230067
Epoch: Jun 13, 2026 • Age: 14 hours

現在のステータス

高度 553.5 km
速度 7.58 km/s
衛星直下点 -39.70°S, 101.84°W
打ち上げ日 Apr 29, 2022
運用期間 4.1 years
タイプ internet

技術仕様

分類 Payload
質量 297.00 kg
乾燥質量 275.00 kg
総質量 297.00 kg
長さ 0.20 m
直径 2.80 m
スパン 9.00 m
形状 Box + pan
製造者 SPXS
バスタイプ Starlink
フェーズステータス In Orbit
所有者/国 SPXS/US

Most Searched